Ignacio, CO

10:19 AM MST on February 12, 2016 (GMT -0700)
Durango-La Plata County

Weather History for KDRO - April, 2013

Change the Weather History Date:

Sunday, April 7, 2013

  Actual Average Record
Temperature  
Mean Temperature 48 °F 43 °F  
Max Temperature 65 °F 59 °F 77 °F (1989)
Min Temperature 30 °F 27 °F 16 °F (2012)
Degree Days  
Heating Degree Days 17 22  
Month to date heating degree days 128 159  
Since 1 July heating degree days 6267 6188  
Cooling Degree Days 0 0  
Month to date cooling degree days 0 0  
Year to date cooling degree days 0 0  
Moisture  
Dew Point 18 °F    
Average Humidity 37    
Maximum Humidity 59    
Minimum Humidity 15    
Precipitation  
Precipitation 0.00 in 0.04 in 0.38 in (2011)
Month to date precipitation T 0.26  
Year to date precipitation 2.61 3.79  
Sea Level Pressure  
Sea Level Pressure 29.76 in    
Wind  
Wind Speed 9 mph (WNW)    
Max Wind Speed 25 mph    
Max Gust Speed 36 mph    
Visibility 10 miles    
Events      
T = Trace of Precipitation, MM = Missing Value Source: NWS Daily Summary

Daily Weather History Graph

Daily Weather History Graph

Search for Another Location

Airport or City:

Trip Planner

Search our weather history database for the weather conditions in past years. The results will help you decide how hot, cold, wet, or windy it might be!

Date:

Astronomy

Apr. 07, 2013 Rise Set
Actual Time 6:47 AM MDT 7:39 PM MDT
Civil Twilight 6:21 AM MDT 8:05 PM MDT
Nautical Twilight 5:49 AM MDT 8:37 PM MDT
Astronomical Twilight 5:17 AM MDT 9:09 PM MDT
Moon 5:03 AM MDT (4/7) 5:17 PM MDT (4/7)
Length of Visible Light 13h 44m
Length of Day
12h 51m
Waning Crescent, 8% of the Moon is Illuminated
Apr 7
Waning Crescent
Apr 10
New
Apr 18
First Quarter
Apr 25
Full
May 2
Last Quarter

Hourly Weather History & Observations

Time (MDT) Temp. Windchill Dew Point Humidity Pressure Visibility Wind Dir Wind Speed Gust Speed Precip Events Conditions
12:53 AM 50.0 °F - 19.0 °F 29% 29.77 in 10.0 mi West 3.5 mph - N/A   Partly Cloudy
1:53 AM 46.0 °F 43.1 °F 19.0 °F 34% 29.77 in 10.0 mi North 5.8 mph - N/A   Mostly Cloudy
2:53 AM 42.1 °F 38.4 °F 21.0 °F 43% 29.78 in 10.0 mi NW 5.8 mph - N/A   Overcast
3:53 AM 39.9 °F - 19.9 °F 45% 29.79 in 10.0 mi Calm Calm - N/A   Clear
4:53 AM 33.1 °F 30.0 °F 17.1 °F 52% 29.81 in 10.0 mi NE 3.5 mph - N/A   Clear
5:53 AM 34.0 °F - 19.9 °F 56% 29.82 in 10.0 mi Calm Calm - N/A   Clear
6:53 AM 32.0 °F 27.5 °F 19.9 °F 61% 29.85 in 10.0 mi North 4.6 mph - N/A   Clear
7:53 AM 37.0 °F - 21.0 °F 52% 29.87 in 10.0 mi Calm Calm - N/A   Clear
8:53 AM 46.0 °F - 25.0 °F 44% 29.84 in 10.0 mi Calm Calm - N/A   Clear
9:53 AM 54.0 °F - 23.0 °F 30% 29.79 in 10.0 mi WSW 6.9 mph - N/A   Clear
10:53 AM 60.1 °F - 19.0 °F 20% 29.77 in 10.0 mi West 21.9 mph 29.9 mph N/A   Partly Cloudy
11:53 AM 62.1 °F - 21.0 °F 21% 29.76 in 10.0 mi West 17.3 mph 26.5 mph N/A   Mostly Cloudy
12:53 PM 62.1 °F - 21.0 °F 21% 29.74 in 10.0 mi West 18.4 mph 23.0 mph N/A   Partly Cloudy
1:53 PM 62.1 °F - 21.0 °F 21% 29.73 in 10.0 mi West 21.9 mph 27.6 mph N/A   Mostly Cloudy
2:53 PM 63.0 °F - 19.0 °F 18% 29.72 in 10.0 mi WSW 17.3 mph 23.0 mph N/A   Scattered Clouds
3:53 PM 64.0 °F - 16.0 °F 16% 29.71 in 10.0 mi West 17.3 mph 35.7 mph N/A   Partly Cloudy
4:53 PM 62.1 °F - 17.1 °F 18% 29.74 in 10.0 mi West 12.7 mph 26.5 mph N/A   Scattered Clouds
5:53 PM 63.0 °F - 15.1 °F 16% 29.73 in 10.0 mi West 15.0 mph 27.6 mph N/A   Partly Cloudy
6:53 PM 60.1 °F - 16.0 °F 18% 29.75 in 10.0 mi West 17.3 mph 24.2 mph N/A   Partly Cloudy
7:53 PM 55.9 °F - 15.1 °F 20% 29.74 in 10.0 mi WNW 8.1 mph - N/A   Clear
8:53 PM 51.1 °F - 12.9 °F 22% 29.72 in 10.0 mi South 3.5 mph - N/A   Clear
9:53 PM 46.9 °F - 15.1 °F 28% 29.71 in 10.0 mi North 4.6 mph - N/A   Clear
10:53 PM 43.0 °F 38.2 °F 12.9 °F 30% 29.69 in 10.0 mi NNE 8.1 mph - N/A   Clear
11:53 PM 39.9 °F - 14.0 °F 35% 29.68 in 10.0 mi Calm Calm - N/A   Clear